When you browse on this site, cookies collect data to enhance your experience and personalize the content and advertising you see.
Visit our Privacy Policy to learn more. By continuing to use the site, you agree to this use of cookies and data.
  • In Czech Republic
  • List of Countries
  • For 7 days
  • Water Temperature
  • Satellite Maps
  • Weather Map
  • Weather Widgets
  • user-avatar
    Login

    Hourly Weather Lozenec

    Today, 23 January, Wednesday

    Time Temperature Precipitation Wind Pressure Humidity
    00:00 +5°C° 0 mm 4 mps 755 mmHg 93%
    01:00 +5°C° 0 mm 4 mps 754 mmHg 92%
    02:00 +5°C° 0 mm 4 mps 754 mmHg 91%
    03:00 +6°C° 0.3 mm 5 mps 753 mmHg 89%
    04:00 +7°C° 0.3 mm 5 mps 752 mmHg 87%
    05:00 +8°C° 0.3 mm 6 mps 752 mmHg 84%
    06:00 +8°C° 0 mm 6 mps 751 mmHg 84%
    07:00 +8°C° 0 mm 5 mps 751 mmHg 84%
    08:00 +8°C° 0 mm 5 mps 751 mmHg 84%
    09:00 +10°C° 0 mm 6 mps 751 mmHg 80%
    10:00 +11°C° 0 mm 6 mps 751 mmHg 76%
    11:00 +12°C° 0 mm 7 mps 751 mmHg 72%
    12:00 +12°C° 0 mm 7 mps 751 mmHg 72%
    13:00 +12°C° 0 mm 7 mps 750 mmHg 71%
    14:00 +14°C° 0 mm 7 mps 750 mmHg 71%
    15:00 +12°C° 0.1 mm 7 mps 750 mmHg 74%
    16:00 +11°C° 0.1 mm 6 mps 750 mmHg 77%
    17:00 +11°C° 0.1 mm 6 mps 750 mmHg 80%
    18:00 +10°C° 0 mm 6 mps 750 mmHg 81%
    19:00 +10°C° 0 mm 6 mps 749 mmHg 82%
    20:00 +10°C° 0 mm 5 mps 749 mmHg 83%
    21:00 +10°C° 0.2 mm 6 mps 749 mmHg 82%
    22:00 +10°C° 0.2 mm 6 mps 749 mmHg 82%
    23:00 +10°C° 0.2 mm 6 mps 749 mmHg 82%

    Tomorrow, 24 January, Thursday

    Time Temperature Precipitation Wind Pressure Humidity
    00:00 +9°C° 0.1 mm 6 mps 749 mmHg 84%
    01:00 +9°C° 0.1 mm 5 mps 748 mmHg 86%
    02:00 +9°C° 0.1 mm 5 mps 748 mmHg 87%
    03:00 +8°C° 0 mm 4 mps 747 mmHg 88%
    04:00 +8°C° 0 mm 4 mps 747 mmHg 89%
    05:00 +8°C° 0 mm 4 mps 746 mmHg 89%
    06:00 +8°C° 0.9 mm 5 mps 746 mmHg 89%
    07:00 +8°C° 0.9 mm 5 mps 746 mmHg 88%
    08:00 +8°C° 0.9 mm 5 mps 745 mmHg 87%
    09:00 +8°C° 1.8 mm 5 mps 745 mmHg 86%
    10:00 +8°C° 1.8 mm 5 mps 745 mmHg 84%
    11:00 +9°C° 1.8 mm 5 mps 745 mmHg 82%
    12:00 +9°C° 0.1 mm 5 mps 744 mmHg 80%
    13:00 +10°C° 0.1 mm 6 mps 744 mmHg 79%
    14:00 +10°C° 0.1 mm 6 mps 744 mmHg 77%
    15:00 +10°C° 0 mm 5 mps 744 mmHg 79%
    16:00 +10°C° 0 mm 4 mps 744 mmHg 82%
    17:00 +10°C° 0 mm 3 mps 744 mmHg 85%
    18:00 +10°C° 0 mm 4 mps 744 mmHg 86%
    19:00 +8°C° 0 mm 4 mps 744 mmHg 88%
    20:00 +8°C° 0 mm 4 mps 745 mmHg 89%
    21:00 +8°C° 0 mm 4 mps 745 mmHg 88%
    22:00 +8°C° 0 mm 4 mps 746 mmHg 87%
    23:00 +8°C° 0 mm 4 mps 746 mmHg 85%

    Day after tomorrow, 25 January, Friday

    Time Temperature Precipitation Wind Pressure Humidity
    00:00 +8°C° 0 mm 4 mps 746 mmHg 85%
    01:00 +8°C° 0 mm 4 mps 747 mmHg 84%
    02:00 +8°C° 0 mm 4 mps 747 mmHg 83%
    03:00 +8°C° 0 mm 4 mps 747 mmHg 84%
    04:00 +8°C° 0 mm 4 mps 747 mmHg 85%
    05:00 +7°C° 0 mm 4 mps 747 mmHg 86%
    06:00 +8°C° 0 mm 4 mps 747 mmHg 84%
    07:00 +8°C° 0 mm 5 mps 746 mmHg 82%
    08:00 +8°C° 0 mm 5 mps 746 mmHg 79%
    09:00 +8°C° 1.2 mm 5 mps 746 mmHg 79%
    10:00 +9°C° 1.2 mm 6 mps 746 mmHg 79%
    11:00 +9°C° 1.2 mm 6 mps 746 mmHg 79%
    12:00 +9°C° 0.1 mm 5 mps 746 mmHg 77%
    13:00 +10°C° 0.1 mm 5 mps 746 mmHg 76%
    14:00 +10°C° 0.1 mm 5 mps 746 mmHg 75%
    15:00 +10°C° 0 mm 5 mps 746 mmHg 77%
    16:00 +10°C° 0 mm 5 mps 745 mmHg 80%
    17:00 +9°C° 0 mm 5 mps 745 mmHg 83%
    18:00 +9°C° 0.3 mm 5 mps 745 mmHg 86%
    19:00 +10°C° 0.3 mm 4 mps 745 mmHg 89%
    20:00 +8°C° 0.3 mm 4 mps 744 mmHg 92%
    21:00 +9°C° 0.1 mm 5 mps 744 mmHg 88%
    22:00 +9°C° 0.1 mm 7 mps 744 mmHg 84%
    23:00 +9°C° 0.1 mm 8 mps 744 mmHg 80%

    26 January, Saturday

    Time Temperature Precipitation Wind Pressure Humidity
    00:00 +9°C° 0 mm 7 mps 744 mmHg 83%
    01:00 +8°C° 0 mm 6 mps 744 mmHg 86%
    02:00 +8°C° 0 mm 5 mps 744 mmHg 88%
    03:00 +8°C° 0 mm 4 mps 744 mmHg 89%
    04:00 +7°C° 0 mm 4 mps 743 mmHg 90%
    05:00 +8°C° 0 mm 3 mps 743 mmHg 91%
    06:00 +8°C° 0 mm 2 mps 743 mmHg 90%
    07:00 +8°C° 0 mm 2 mps 744 mmHg 88%
    08:00 +8°C° 0 mm 2 mps 744 mmHg 87%
    09:00 +9°C° 0.1 mm 2 mps 744 mmHg 83%
    10:00 +10°C° 0.1 mm 2 mps 744 mmHg 79%
    11:00 +12°C° 0.1 mm 2 mps 744 mmHg 74%
    12:00 +13°C° 0.1 mm 2 mps 744 mmHg 73%
    13:00 +12°C° 0.1 mm 3 mps 744 mmHg 71%
    14:00 +12°C° 0.1 mm 3 mps 744 mmHg 69%
    15:00 +12°C° 0.3 mm 3 mps 744 mmHg 74%
    16:00 +11°C° 0.3 mm 3 mps 744 mmHg 78%
    17:00 +10°C° 0.3 mm 3 mps 744 mmHg 82%
    18:00 +10°C° 0.2 mm 2 mps 745 mmHg 84%
    19:00 +9°C° 0.2 mm 2 mps 745 mmHg 85%
    20:00 +10°C° 0.2 mm 1 mps 745 mmHg 87%
    21:00 +10°C° 0.1 mm 1 mps 746 mmHg 87%
    22:00 +10°C° 0.1 mm 1 mps 746 mmHg 87%
    23:00 +10°C° 0.1 mm 1 mps 746 mmHg 87%

    27 January, Sunday

    Time Temperature Precipitation Wind Pressure Humidity
    00:00 +8°C° 0.5 mm 2 mps 746 mmHg 88%
    01:00 +8°C° 0.5 mm 2 mps 746 mmHg 88%
    02:00 +8°C° 0.5 mm 3 mps 746 mmHg 89%
    03:00 +8°C° 0 mm 3 mps 746 mmHg 88%
    04:00 +8°C° 0 mm 3 mps 746 mmHg 87%
    05:00 +6°C° 0 mm 4 mps 746 mmHg 86%
    06:00 +6°C° 0 mm 4 mps 746 mmHg 86%
    07:00 +6°C° 0 mm 4 mps 747 mmHg 86%
    08:00 +7°C° 0 mm 3 mps 747 mmHg 86%
    09:00 +8°C° 0 mm 3 mps 747 mmHg 81%
    10:00 +8°C° 0 mm 3 mps 747 mmHg 77%
    11:00 +9°C° 0 mm 3 mps 748 mmHg 72%
    12:00 +10°C° 0 mm 3 mps 747 mmHg 69%
    13:00 +10°C° 0 mm 2 mps 747 mmHg 66%
    14:00 +12°C° 0 mm 2 mps 747 mmHg 64%
    15:00 +11°C° 0 mm 1 mps 747 mmHg 68%
    16:00 +10°C° 0 mm 1 mps 747 mmHg 72%
    17:00 +9°C° 0 mm 1 mps 748 mmHg 76%
    18:00 +9°C° 0 mm 1 mps 748 mmHg 79%
    19:00 +7°C° 0 mm 2 mps 748 mmHg 82%
    20:00 +6°C° 0 mm 2 mps 749 mmHg 84%
    21:00 +6°C° 0 mm 2 mps 749 mmHg 84%
    22:00 +6°C° 0 mm 2 mps 750 mmHg 85%
    23:00 +6°C° 0 mm 1 mps 750 mmHg 85%

    28 January, Monday

    Time Temperature Precipitation Wind Pressure Humidity
    00:00 +6°C° 0 mm 1 mps 751 mmHg 85%
    01:00 +6°C° 0 mm 1 mps 751 mmHg 85%
    02:00 +6°C° 0 mm 1 mps 751 mmHg 86%
    03:00 +6°C° 0 mm 1 mps 751 mmHg 86%
    04:00 +6°C° 0 mm 1 mps 752 mmHg 87%
    05:00 +5°C° 0 mm 1 mps 752 mmHg 88%
    06:00 +5°C° 0 mm 1 mps 752 mmHg 88%
    07:00 +5°C° 0 mm 1 mps 753 mmHg 88%
    08:00 +5°C° 0 mm 1 mps 753 mmHg 88%
    09:00 +7°C° 0 mm 1 mps 754 mmHg 81%
    10:00 +8°C° 0 mm 2 mps 754 mmHg 73%
    11:00 +10°C° 0 mm 2 mps 755 mmHg 66%
    12:00 +10°C° 0 mm 2 mps 755 mmHg 64%
    13:00 +12°C° 0 mm 2 mps 755 mmHg 62%
    14:00 +13°C° 0 mm 2 mps 755 mmHg 60%
    15:00 +12°C° 0 mm 2 mps 755 mmHg 65%
    16:00 +12°C° 0 mm 2 mps 755 mmHg 69%
    17:00 +10°C° 0 mm 3 mps 755 mmHg 74%
    18:00 +9°C° 0 mm 3 mps 756 mmHg 77%
    19:00 +8°C° 0 mm 3 mps 756 mmHg 80%
    20:00 +8°C° 0 mm 3 mps 756 mmHg 83%
    21:00 +8°C° 0 mm 3 mps 757 mmHg 84%
    22:00 +8°C° 0 mm 3 mps 757 mmHg 85%
    23:00 +7°C° 0 mm 3 mps 757 mmHg 86%
    Show more